KINEIS-3E

Last updated on Fri Sep 11 2026 00:02:53 GMT+0000 (Coordinated Universal Time)

1 61222U 24172C 26253.47602811 .00001167 00000+0 19226-3 0 9993 2 61222 98.0407 342.4490 0001147 119.8865 240.2457 14.72362916105900
UTC large
Height (km)
Speed (km/s)
/
Latitude / Longitude
Inclination (degrees)
Orbital Period (minutes)
Azimuth
Elevation
Range (km)
Doppler Factor

Next 0 passes for location: London (51.5072 / 0.1276)

No passes found over London.
KINEIS-3E